Terug naar catalogus

FLOCK 4Q 28

ActiefWetenschapSSO
NORAD 58280·PAYLOAD·🇺🇸 United States

Gelanceerd Nov 11, 2023 vanaf Vandenberg Space Force Base

Loading…

Volgende Passages (komende 24 uur)

TLE

VersSource: Space-Track

Epoch: Sep 14, 2026, 05:05 UTC

1 58280U 23174AA  26257.21236159  .00078731  00000-0  92687-3 0  9992
2 58280  97.3854 351.6665 0004165 175.5487 184.5808 15.61140021159602

Volg FLOCK 4Q 28 in realtime met AllMySat

Download on the App Store